Tracking 27422 objects as of 31-May-2023
HD Live streaming from Space Station
objects crossing your sky now

YARILO-2

Track YARILO-2 now!
10-day predictions
YARILO-2 is classified as:


NORAD ID: 46491
Int'l Code: 2020-068F
Perigee: 524.0 km
Apogee: 546.0 km
Inclination: 97.8 °
Period: 95.2 minutes
Semi major axis: 6905 km
RCS: Unknown
Launch date: September 28, 2020
Source: (UNK)
Launch site: PLESETSK MISSILE AND SPACE COMPLEX (PKMTR)

Uplink (MHz):
Downlink (MHz): 435.550
Beacon (MHz):
Mode: 9600bps FSK
Call sign:
Status: Inactive

Your satellite tracking list
Your tracking list is empty




NASA's NSSDC Master Catalog

Two Line Element Set (TLE):
1 46491U 20068F   23150.38450170  .00007701  00000-0  44186-3 0  9990
2 46491  97.7680 100.1851 0015896 170.5369 189.6164 15.12740403146541
Source of the keplerian elements: AFSPC